Change the Weather History Date:

Wednesday, October 3, 2012

  Actual Average (KDMN) Record (KDMN)
Temperature  
Mean Temperature 68 °F 67 °F  
Max Temperature 84 °F 82 °F 93 °F (2000)
Min Temperature 53 °F 51 °F 37 °F (1982)
Cooling Degree Days 4    
Growing Degree Days 18 (Base 50)    
Moisture  
Dew Point 27 °F    
Average Humidity 22    
Maximum Humidity 41    
Minimum Humidity 11    
Precipitation  
Precipitation 0.00 in 0.04 in 0.82 in (1984)
Month to date precipitation 0.11  
Year to date precipitation 9.00  
Sea Level Pressure  
Sea Level Pressure 30.16 in    
Wind  
Wind Speed 13 mph (NW)    
Max Wind Speed 25 mph    
Max Gust Speed 33 mph    
Visibility 10 miles    
Events      
T = Trace of Precipitation, MM = Missing Value Source: NWS Daily Summary

Daily Weather History Graph

Daily Weather History Graph

Search for Another Location

Airport or City:

Trip Planner

Search our weather history database for the weather conditions in past years. The results will help you decide how hot, cold, wet, or windy it might be!

Date:

Astronomy

Oct. 03, 2012 Rise Set
Actual Time 7:08 AM MDT 6:53 PM MDT
Civil Twilight 6:43 AM MDT 7:18 PM MDT
Nautical Twilight 6:15 AM MDT 7:46 PM MDT
Astronomical Twilight 5:46 AM MDT 8:15 PM MDT
Moon 9:02 PM MDT 10:21 AM MDT
Length of Visible Light 12h 34m
Length of Day
11h 45m
Waning Gibbous, 88% of the Moon is Illuminated
Oct 3
Waning Gibbous
Oct 8
Last Quarter
Oct 15
New
Oct 21
First Quarter
Oct 29
Full

Hourly Weather History & Observations

Time (MDT) Temp. Dew Point Humidity Pressure Visibility Wind Dir Wind Speed Gust Speed Precip Events Conditions
12:15 AM 60.8 °F 28.4 °F 29% 30.12 in 10.0 mi NNW 10.4 mph - N/A   Clear
12:35 AM 59.0 °F 30.2 °F 34% 30.12 in 10.0 mi NNW 12.7 mph - N/A   Clear
12:55 AM 60.8 °F 28.4 °F 29% 30.12 in 10.0 mi North 11.5 mph - N/A   Clear
1:15 AM 60.8 °F 28.4 °F 29% 30.12 in 10.0 mi North 12.7 mph - N/A   Clear
1:35 AM 62.6 °F 28.4 °F 27% 30.12 in 10.0 mi NNW 11.5 mph - N/A   Clear
1:55 AM 62.6 °F 28.4 °F 27% 30.12 in 10.0 mi NNW 12.7 mph - N/A   Clear
2:15 AM 64.4 °F 26.6 °F 24% 30.13 in 10.0 mi NNW 11.5 mph - N/A   Clear
2:35 AM 62.6 °F 28.4 °F 27% 30.13 in 10.0 mi North 11.5 mph - N/A   Clear
2:55 AM 62.6 °F 28.4 °F 27% 30.12 in 10.0 mi North 11.5 mph - N/A   Clear
3:15 AM 59.0 °F 28.4 °F 31% 30.12 in 10.0 mi North 11.5 mph - N/A   Clear
3:35 AM 59.0 °F 28.4 °F 31% 30.12 in 10.0 mi NNW 10.4 mph - N/A   Clear
3:55 AM 57.2 °F 28.4 °F 33% 30.12 in 10.0 mi NNW 10.4 mph - N/A   Clear
4:15 AM 57.2 °F 28.4 °F 33% 30.12 in 10.0 mi NNW 12.7 mph - N/A   Clear
4:55 AM 57.2 °F 28.4 °F 33% 30.13 in 10.0 mi NNW 11.5 mph - N/A   Clear
5:15 AM 55.4 °F 28.4 °F 36% 30.14 in 10.0 mi NNW 11.5 mph - N/A   Clear
5:35 AM 57.2 °F 28.4 °F 33% 30.14 in 10.0 mi NW 9.2 mph - N/A   Clear
5:55 AM 55.4 °F 28.4 °F 36% 30.14 in 10.0 mi NNW 10.4 mph - N/A   Clear
6:15 AM 55.4 °F 28.4 °F 36% 30.15 in 10.0 mi NNW 12.7 mph - N/A   Clear
6:35 AM 55.4 °F 30.2 °F 38% 30.15 in 10.0 mi North 10.4 mph - N/A   Clear
6:55 AM 53.6 °F 30.2 °F 41% 30.15 in 10.0 mi NNW 10.4 mph - N/A   Clear
7:15 AM 53.6 °F 28.4 °F 38% 30.15 in 10.0 mi NNW 11.5 mph - N/A   Clear
7:35 AM 53.6 °F 30.2 °F 41% 30.16 in 10.0 mi NNW 10.4 mph - N/A   Clear
7:55 AM 57.2 °F 30.2 °F 36% 30.16 in 10.0 mi North 9.2 mph - N/A   Clear
8:15 AM 62.6 °F 32.0 °F 32% 30.17 in 10.0 mi North 4.6 mph - N/A   Clear
8:35 AM 66.2 °F 28.4 °F 24% 30.18 in 10.0 mi NNW 10.4 mph - N/A   Clear
8:55 AM 68.0 °F 26.6 °F 21% 30.18 in 10.0 mi NNW 12.7 mph - N/A   Clear
9:15 AM 71.6 °F 26.6 °F 19% 30.19 in 10.0 mi NW 13.8 mph - N/A   Clear
9:35 AM 73.4 °F 26.6 °F 18% 30.20 in 10.0 mi NW 11.5 mph - N/A   Clear
9:55 AM 75.2 °F 26.6 °F 17% 30.21 in 10.0 mi WNW 13.8 mph - N/A   Clear
10:15 AM 75.2 °F 26.6 °F 17% 30.20 in 10.0 mi NW 16.1 mph 21.9 mph N/A   Clear
10:35 AM 77.0 °F 26.6 °F 16% 30.20 in 10.0 mi WNW 15.0 mph 20.7 mph N/A   Clear
10:55 AM 77.0 °F 26.6 °F 16% 30.20 in 10.0 mi WNW 16.1 mph 25.3 mph N/A   Clear
11:15 AM 80.6 °F 26.6 °F 14% 30.20 in 10.0 mi WNW 19.6 mph - N/A   Clear
11:35 AM 80.6 °F 24.8 °F 13% 30.20 in 10.0 mi WNW 20.7 mph 28.8 mph N/A   Clear
11:55 AM 80.6 °F 24.8 °F 13% 30.20 in 10.0 mi WNW 19.6 mph 28.8 mph N/A   Clear
12:15 PM 80.6 °F 24.8 °F 13% 30.19 in 10.0 mi WNW 21.9 mph 31.1 mph N/A   Clear
12:35 PM 80.6 °F 24.8 °F 13% 30.19 in 10.0 mi WNW 19.6 mph 26.5 mph N/A   Clear
12:55 PM 82.4 °F 24.8 °F 12% 30.18 in 10.0 mi NW 19.6 mph 27.6 mph N/A   Clear
1:15 PM 82.4 °F 26.6 °F 13% 30.17 in 10.0 mi NW 13.8 mph 26.5 mph N/A   Clear
1:35 PM 82.4 °F 26.6 °F 13% 30.16 in 10.0 mi West 13.8 mph 26.5 mph N/A   Clear
1:55 PM 84.2 °F 26.6 °F 12% 30.16 in 10.0 mi NW 13.8 mph 32.2 mph N/A   Clear
2:15 PM 84.2 °F 26.6 °F 12% 30.15 in 10.0 mi WNW 11.5 mph 23.0 mph N/A   Clear
2:35 PM 82.4 °F 24.8 °F 12% 30.14 in 10.0 mi West 18.4 mph 26.5 mph N/A   Clear
2:55 PM 84.2 °F 24.8 °F 11% 30.14 in 10.0 mi West 19.6 mph 31.1 mph N/A   Clear
3:15 PM 84.2 °F 24.8 °F 11% 30.14 in 10.0 mi West 18.4 mph 27.6 mph N/A   Clear
3:35 PM 84.2 °F 24.8 °F 11% 30.14 in 10.0 mi WNW 25.3 mph 32.2 mph N/A   Clear
3:55 PM 84.2 °F 24.8 °F 11% 30.14 in 10.0 mi WNW 21.9 mph 31.1 mph N/A   Clear
4:15 PM 84.2 °F 24.8 °F 11% 30.14 in 10.0 mi West 25.3 mph 33.4 mph N/A   Clear
4:35 PM 84.2 °F 26.6 °F 12% 30.14 in 10.0 mi West 19.6 mph 25.3 mph N/A   Clear
4:55 PM 84.2 °F 24.8 °F 11% 30.14 in 10.0 mi WNW 21.9 mph 29.9 mph N/A   Clear
5:15 PM 82.4 °F 24.8 °F 12% 30.15 in 10.0 mi WNW 20.7 mph 28.8 mph N/A   Clear
5:35 PM 82.4 °F 23.0 °F 11% 30.15 in 10.0 mi West 23.0 mph 29.9 mph N/A   Clear
5:55 PM 82.4 °F 23.0 °F 11% 30.15 in 10.0 mi West 20.7 mph 27.6 mph N/A   Clear
6:15 PM 80.6 °F 23.0 °F 12% 30.16 in 10.0 mi West 17.3 mph 29.9 mph N/A   Clear
6:35 PM 78.8 °F 23.0 °F 13% 30.16 in 10.0 mi West 16.1 mph 23.0 mph N/A   Clear
6:55 PM 77.0 °F 24.8 °F 14% 30.16 in 10.0 mi West 15.0 mph 20.7 mph N/A   Clear
7:15 PM 75.2 °F 24.8 °F 15% 30.17 in 10.0 mi West 11.5 mph - N/A   Clear
7:35 PM 75.2 °F 24.8 °F 15% 30.17 in 10.0 mi West 9.2 mph - N/A   Clear
7:55 PM 71.6 °F 24.8 °F 17% 30.18 in 10.0 mi West 10.4 mph - N/A   Clear
8:15 PM 69.8 °F 24.8 °F 18% 30.19 in 10.0 mi WNW 6.9 mph - N/A   Clear
8:35 PM 68.0 °F 26.6 °F 21% 30.19 in 10.0 mi NW 9.2 mph - N/A   Clear
8:55 PM 66.2 °F 26.6 °F 23% 30.20 in 10.0 mi WNW 11.5 mph - N/A   Clear
9:15 PM 64.4 °F 26.6 °F 24% 30.20 in 10.0 mi NW 11.5 mph - N/A   Clear
9:35 PM 66.2 °F 26.6 °F 23% 30.21 in 10.0 mi NW 13.8 mph - N/A   Clear
9:55 PM 64.4 °F 26.6 °F 24% 30.21 in 10.0 mi NW 12.7 mph - N/A   Clear
10:15 PM 64.4 °F 26.6 °F 24% 30.21 in 10.0 mi NNW 11.5 mph - N/A   Clear
10:35 PM 62.6 °F 26.6 °F 26% 30.22 in 10.0 mi NW 8.1 mph - N/A   Clear
10:55 PM 59.0 °F 28.4 °F 31% 30.23 in 10.0 mi NNW 6.9 mph - N/A   Clear
11:15 PM 57.2 °F 28.4 °F 33% 30.23 in 10.0 mi NNW 8.1 mph - N/A   Clear
11:35 PM 57.2 °F 28.4 °F 33% 30.23 in 10.0 mi NNW 9.2 mph - N/A   Clear
11:55 PM 59.0 °F 28.4 °F 31% 30.23 in 10.0 mi NNW 11.5 mph - N/A   Clear